User: anonymous   Login
Location: Unspecified
(0.0000°N, 0.0000°E)
Time: 23:34:32
(UTC+00:00)
Language:

SAR-Lupe-2 - Orbit

View from above orbital plane
View from above orbital plane
View from above satellite
View from above satellite

Ground track
Ground track

The orbit data is extracted from the following two-line orbital elements,

1 31797U 07030A   17231.01077504 0.00001100  00000-0  41148-4 0    02
2 31797  98.1508 346.5420 0003491 315.2296  44.7702 15.27349062    02
Epoch (UTC): 19 August 2017 00:15:30
Eccentricity: 0.0003491
inclination: 98.1508°
perigee height: 481 km
apogee height: 486 km
right ascension of ascending node: 346.5420°
argument of perigee: 315.2296°
revolutions per day: 15.27349062
mean anomaly at epoch: 44.7702°
orbit number at epoch: 0

The dashed part of the orbit path shows where the satellite is in the earth's shadow,  

DLR